Back to catalog

STARLINK-6204

AliveCommunicationsVLEO
NORAD 56488·PAYLOAD·🇺🇸 United States

Launched May 10, 2023 from Vandenberg Space Force Base

Loading…

Next Passes (next 24 hours)

TLE

FreshSource: CelesTrak SupGP

Epoch: Sep 14, 2026, 21:53 UTC

1 56488C 23064AS  26257.91229167 -.00049132  00000+0 -41187-2 0  2575
2 56488  70.0018 347.4598 0003375 272.0047  91.7849 14.98342968    12

Track STARLINK-6204 in real time with AllMySat

Download on the App Store